Terug naar catalogus

STARLINK-3588

ActiefCommunicatieVLEO
NORAD 51869·PAYLOAD·🇺🇸 United States

Gelanceerd Mar 3, 2022 vanaf Cape Canaveral Space Force Station

Loading…

Volgende Passages (komende 24 uur)

TLE

VersSource: CelesTrak SupGP

Epoch: Sep 14, 2026, 21:03 UTC

1 51869C 22022T   26257.87756944  .00026516  00000+0  75871-3 0  2576
2 51869  53.1576 230.2701 0001355  96.9775 229.5178 15.35382673    18

Volg STARLINK-3588 in realtime met AllMySat

Download on the App Store